Nellis AFB, NV

4:43 PM PST on December 17, 2017 (GMT -0800)
Nellis Air Force Base

Weather History for KLSV - November, 2013

Change the Weather History Date:

Wednesday, November 13, 2013

  Actual Average Record
Temperature  
Mean Temperature 63 °F -  
Max Temperature 79 °F 66 °F 82 °F (1999)
Min Temperature 47 °F 42 °F 32 °F (2000)
Degree Days  
Heating Degree Days 2    
Growing Degree Days 13 (Base 50)    
Moisture  
Dew Point 19 °F    
Average Humidity 20    
Maximum Humidity 29    
Minimum Humidity 11    
Precipitation  
Precipitation 0.00 in - - ()
Sea Level Pressure  
Sea Level Pressure 30.08 in    
Wind  
Wind Speed 2 mph (North)    
Max Wind Speed 12 mph    
Max Gust Speed 21 mph    
Visibility 10 miles    
Events      
Averages and records for this station are not official NWS values.
T = Trace of Precipitation, MM = Missing Value Source: NWS Daily Summary

Daily Weather History Graph

Daily Weather History Graph

Search for Another Location

Airport or City:

Trip Planner

Search our weather history database for the weather conditions in past years. The results will help you decide how hot, cold, wet, or windy it might be!

Date:

Astronomy

Nov. 13, 2013 Rise Set
Actual Time 6:15 AM PST 4:33 PM PST
Civil Twilight 5:48 AM PST 5:00 PM PST
Nautical Twilight 5:17 AM PST 5:31 PM PST
Astronomical Twilight 4:46 AM PST 6:01 PM PST
Moon 2:17 PM PST (11/13) 2:19 AM PST (11/13)
Length of Visible Light 11h 12m
Length of Day
10h 17m
Waxing Gibbous, 85% of the Moon is Illuminated
Nov 13
Waxing Gibbous
Nov 17
Full
Nov 25
Last Quarter
Dec 2
New
Dec 9
First Quarter

Hourly Weather History & Observations

Time (PST) Temp. Dew Point Humidity Pressure Visibility Wind Dir Wind Speed Gust Speed Precip Events Conditions
12:58 AM 56.3 °F 19.2 °F 24% 30.14 in 10.0 mi WNW 2.3 mph - N/A   Mostly Cloudy
1:58 AM 54.7 °F 18.9 °F 25% 30.14 in 10.0 mi Calm Calm - N/A   Overcast
2:58 AM 55.2 °F 18.3 °F 24% 30.14 in 10.0 mi Calm Calm - N/A   Clear
3:58 AM 54.5 °F 18.0 °F 24% 30.14 in 10.0 mi NE 1.2 mph - N/A   Clear
4:58 AM 51.8 °F 18.1 °F 27% 30.14 in 10.0 mi West 2.3 mph - N/A   Clear
5:58 AM 49.1 °F 17.6 °F 29% 30.15 in 10.0 mi Calm Calm - N/A   Clear
6:58 AM 47.7 °F 16.2 °F 28% 30.17 in 10.0 mi WNW 2.3 mph - N/A   Partly Cloudy
7:58 AM 55.6 °F 19.2 °F 24% 30.17 in 10.0 mi Calm Calm - N/A   Partly Cloudy
8:58 AM 60.1 °F 20.3 °F 22% 30.15 in 10.0 mi Calm Calm - N/A   Clear
9:58 AM 64.9 °F 20.8 °F 19% 30.14 in 10.0 mi South 1.2 mph - N/A   Partly Cloudy
10:58 AM 72.1 °F 20.8 °F 14% 30.11 in 10.0 mi WSW 1.2 mph - N/A   Scattered Clouds
11:58 AM 74.8 °F 20.7 °F 13% 30.09 in 10.0 mi Calm Calm - N/A   Clear
12:58 PM 77.2 °F 20.5 °F 12% 30.05 in 10.0 mi Calm Calm - N/A   Clear
1:58 PM 79.2 °F 20.3 °F 11% 30.02 in 10.0 mi Calm Calm - N/A   Clear
2:58 PM 78.8 °F 20.5 °F 11% 30.00 in 10.0 mi Calm Calm - N/A   Clear
3:58 PM 78.8 °F 20.5 °F 11% 29.99 in 10.0 mi SW 1.2 mph - N/A   Clear
4:58 PM 74.1 °F 20.7 °F 13% 30.00 in 10.0 mi Calm Calm - N/A   Clear
5:58 PM 64.2 °F 19.6 °F 18% 30.02 in 10.0 mi NE 5.8 mph - N/A   Clear
6:58 PM 62.2 °F 19.0 °F 19% 30.04 in 10.0 mi North 1.2 mph - N/A   Clear
7:58 PM 58.6 °F 19.2 °F 22% 30.03 in 10.0 mi East 2.3 mph - N/A   Clear
8:58 PM 57.4 °F 18.0 °F 21% 30.03 in 10.0 mi South 2.3 mph - N/A   Clear
9:58 PM 55.8 °F 18.3 °F 23% 30.03 in 10.0 mi North 2.3 mph - N/A   Clear
10:58 PM 52.9 °F 18.1 °F 26% 30.02 in 10.0 mi East 6.9 mph - N/A   Clear
11:58 PM 60.3 °F 19.9 °F 21% 30.01 in 10.0 mi East 11.5 mph 20.7 mph N/A   Clear